TimeMST,TemperatureF,Dew PointF,Humidity,Sea Level PressureIn,VisibilityMPH,Wind Direction,Wind SpeedMPH,Gust SpeedMPH,PrecipitationIn,Events,Conditions,WindDirDegrees,DateUTC
12:52 AM,28.9,23.0,78,30.16,-9999.0,NW,8.1,-,N/A,,Clear,310,2013-02-02 07:52:00
1:52 AM,32.0,24.1,73,30.17,-9999.0,NW,9.2,-,N/A,,Clear,320,2013-02-02 08:52:00
2:52 AM,27.0,21.0,78,30.18,-9999.0,NW,8.1,-,N/A,,Clear,310,2013-02-02 09:52:00
3:52 AM,33.1,23.0,66,30.17,-9999.0,NW,12.7,-,N/A,,Clear,310,2013-02-02 10:52:00
4:52 AM,32.0,21.9,66,30.18,-9999.0,WNW,12.7,-,N/A,,Clear,290,2013-02-02 11:52:00
5:52 AM,33.1,21.9,64,30.17,-9999.0,WNW,12.7,-,N/A,,Clear,300,2013-02-02 12:52:00
6:52 AM,34.0,21.0,59,30.16,10.0,West,15.0,-,N/A,,Clear,280,2013-02-02 13:52:00
7:52 AM,36.0,21.0,55,30.17,10.0,WNW,12.7,-,N/A,,Clear,290,2013-02-02 14:52:00
8:52 AM,41.0,21.9,47,30.17,10.0,WNW,12.7,-,N/A,,Clear,300,2013-02-02 15:52:00
9:52 AM,44.1,23.0,43,30.17,10.0,WNW,18.4,28.8,N/A,,Clear,300,2013-02-02 16:52:00
10:52 AM,45.0,21.9,40,30.15,10.0,NW,25.3,35.7,N/A,,Clear,310,2013-02-02 17:52:00
11:52 AM,46.0,21.9,39,30.15,10.0,NNW,34.5,42.6,N/A,,Clear,330,2013-02-02 18:52:00
12:52 PM,46.0,23.0,40,30.16,10.0,NW,34.5,47.2,N/A,,Clear,320,2013-02-02 19:52:00
1:52 PM,46.0,23.0,40,30.15,10.0,NW,38.0,48.3,N/A,,Clear,320,2013-02-02 20:52:00
2:52 PM,46.0,21.9,39,30.17,10.0,NW,35.7,49.5,N/A,,Clear,320,2013-02-02 21:52:00
3:52 PM,44.1,21.9,42,30.19,10.0,NW,39.1,48.3,N/A,,Clear,320,2013-02-02 22:52:00
4:52 PM,39.9,21.0,47,30.21,10.0,NW,25.3,33.4,N/A,,Clear,320,2013-02-02 23:52:00
5:52 PM,37.0,21.0,52,30.25,10.0,NW,16.1,-,N/A,,Clear,320,2013-02-03 00:52:00
6:52 PM,35.6,21.2,56,30.19,10.0,NW,12.7,-,N/A,,Clear,320,2013-02-03 01:52:00
7:52 PM,34.0,19.9,56,30.27,10.0,NW,8.1,-,N/A,,Clear,320,2013-02-03 02:52:00
8:52 PM,34.0,21.0,59,30.25,10.0,NNW,11.5,-,N/A,,Clear,330,2013-02-03 03:52:00
9:52 PM,28.9,19.9,69,30.25,10.0,West,3.5,-,N/A,,Clear,270,2013-02-03 04:52:00
10:52 PM,25.0,19.0,78,30.25,10.0,Calm,Calm,-,N/A,,Clear,0,2013-02-03 05:52:00
11:52 PM,24.1,18.0,77,30.25,-9999.0,Calm,Calm,-,N/A,,Clear,0,2013-02-03 06:52:00